Location: Gold Fund Mine
(38.3819°N, 119.0996°W)
Time: 17:55:40
(UTC+00:00)

Cosmos 921 Rocket - Pass Details

Date: 18 September 2020
Orbit: 572 x 632 km, 75.8° (Epoch: 19 October)

Event Time Altitude Azimuth Distance (km) Brightness Sun altitude
Exits shadow 12:56:12 13° 257° (WSW) 1,700 4.6 -9.6°
Maximum altitude 12:58:30 19° 295° (WNW) 1,397 4.4 -9.1°
Drops below altitude 10° 13:01:30 10° 341° (NNW) 1,882 5.4 -8.6°
Sets 13:04:16 0° 0° (N) 2,786 6.5 -8.0°
